Date String (YYYY-MM-DD hh:mm:ss) UTC,Instrument flags,Ambient pressure (hPa),Sample flow (lpm),Bypass flow (lpm),Sample temperature (°C),Ambient temperature (°C),ASC tube jacket temperature (°C),LED temperature (°C),Box temperature (°C),Sample RH (%),Span deviation,Mass concentration (μg/m³),Mass concentration (μg/m³),Mass concentration (μg/m³)
DateTimeUTC,F1_M11,P_M11,Q1_M11,Q2_M11,T1_M11,T2_M11,T3_M11,T4_M11,T5_M11,U1_M11,ZSPAN_M11,X2_M11,X0_M11,X1_M11
2022-09-19 11:00:00,,0825.7,4.99,0.00,30.7,29.2,00.0,39.4,32.4,16.8,0000.0,0004.72,0009.16,0004.25
2022-09-19 11:01:00,,0825.7,5.02,0.00,30.7,29.2,00.0,39.4,32.4,16.4,0000.0,0004.71,0009.45,0004.21
2022-09-19 11:02:00,,0825.7,4.99,0.00,30.7,29.2,00.0,39.5,32.4,15.9,0000.0,0004.64,0009.74,0004.16
2022-09-19 11:03:00,,0825.7,5.01,0.00,30.7,29.2,00.0,39.5,32.4,15.6,0000.0,0004.59,0009.68,0004.11
2022-09-19 11:04:00,,0825.7,4.99,0.00,30.7,29.2,00.0,39.5,32.4,15.7,0000.0,0004.53,0009.33,0004.06
2022-09-19 11:05:00,,0825.7,5.01,0.00,30.7,29.2,00.0,39.5,32.4,15.8,0000.0,0004.47,0008.88,0004.02
2022-09-19 11:06:00,,0825.7,5.00,0.00,30.7,29.2,00.0,39.5,32.4,15.7,0000.0,0004.42,0008.55,0003.98
2022-09-19 11:07:00,,0825.7,5.00,0.00,30.7,29.2,00.0,39.5,32.4,15.3,0000.0,0004.36,0008.55,0003.92
2022-09-19 11:08:00,,0825.7,4.99,0.00,30.7,29.2,00.0,39.5,32.4,15.3,0000.0,0004.30,0008.57,0003.86
2022-09-19 11:09:00,,0825.7,5.00,0.00,30.7,29.2,00.0,39.5,32.4,15.4,0000.0,0004.24,0008.52,0003.81
2022-09-19 11:10:00,,0825.7,5.01,0.00,30.7,29.2,00.0,39.5,32.4,16.2,0000.0,0004.20,0008.41,0003.78
2022-09-19 11:11:00,,0825.7,4.99,0.00,30.7,29.2,00.0,39.5,32.4,15.8,0000.0,0004.16,0008.10,0003.75
2022-09-19 11:12:00,,0825.7,5.01,0.00,30.7,29.2,00.0,39.5,32.4,15.5,0000.0,0004.09,0007.80,0003.70
2022-09-19 11:13:00,,0825.8,5.00,0.00,30.7,29.2,00.0,39.5,32.4,15.4,0000.0,0004.07,0007.44,0003.67
2022-09-19 11:14:00,,0825.7,5.01,0.00,30.7,29.2,00.0,39.5,32.4,15.3,0000.0,0004.10,0008.31,0003.65
2022-09-19 11:15:00,,0825.7,5.01,0.00,30.7,29.2,00.0,39.5,32.5,15.6,0000.0,0004.09,0008.40,0003.64
2022-09-19 11:16:00,,0825.7,4.99,0.00,30.7,29.2,00.0,39.5,32.5,16.3,0000.0,0004.12,0008.52,0003.64
2022-09-19 11:17:00,,0825.7,5.00,0.00,30.7,29.3,00.0,39.5,32.5,16.4,0000.0,0004.12,0008.50,0003.66
2022-09-19 11:18:00,,0825.7,5.00,0.00,30.7,29.2,00.0,39.5,32.5,16.3,0000.0,0004.15,0008.74,0003.69
2022-09-19 11:19:00,,0825.7,5.01,0.00,30.7,29.2,00.0,39.5,32.5,16.3,0000.0,0004.22,0009.04,0003.72
2022-09-19 11:20:00,,0825.7,5.00,0.00,30.7,29.2,00.0,39.5,32.5,16.2,0000.0,0004.25,0009.06,0003.74
2022-09-19 11:21:00,,0825.7,4.99,0.00,30.7,29.3,00.0,39.5,32.5,16.0,0000.0,0004.28,0009.90,0003.74
2022-09-19 11:22:00,,0825.7,5.01,0.00,30.7,29.2,00.0,39.5,32.5,15.3,0000.0,0004.23,0009.87,0003.70
2022-09-19 11:23:00,,0825.7,4.99,0.00,30.7,29.2,00.0,39.5,32.5,15.1,0000.0,0004.21,0009.87,0003.69
2022-09-19 11:24:00,,0825.6,5.01,0.00,30.7,29.2,00.0,39.5,32.5,15.1,0000.0,0004.21,0009.95,0003.68
2022-09-19 11:25:00,,0825.6,5.00,0.00,30.7,29.2,00.0,39.5,32.5,15.1,0000.0,0004.16,0010.15,0003.68
2022-09-19 11:26:00,,0825.6,4.99,0.00,30.7,29.2,00.0,39.5,32.5,15.2,0000.0,0004.16,0010.24,0003.66
2022-09-19 11:27:00,,0825.6,4.99,0.00,30.7,29.2,00.0,39.5,32.5,15.5,0000.0,0004.11,0010.11,0003.64
2022-09-19 11:28:00,,0825.6,5.00,0.00,30.7,29.2,00.0,39.5,32.5,15.4,0000.0,0004.08,0010.13,0003.60
2022-09-19 11:29:00,,0825.6,5.01,0.00,30.7,29.2,00.0,39.5,32.5,15.8,0000.0,0004.07,0010.21,0003.57
2022-09-19 11:30:00,,0825.6,5.00,0.00,30.7,29.2,00.0,39.5,32.5,16.0,0000.0,0004.03,0010.26,0003.55
2022-09-19 11:31:00,,0825.7,4.99,0.00,30.7,29.2,00.0,39.5,32.5,16.7,0000.0,0004.02,0010.19,0003.56
2022-09-19 11:32:00,,0825.7,5.01,0.00,30.7,29.2,00.0,39.5,32.5,17.1,0000.0,0004.03,0009.43,0003.59
2022-09-19 11:33:00,,0825.7,4.99,0.00,30.7,29.1,00.0,39.5,32.5,16.8,0000.0,0004.09,0010.02,0003.64
2022-09-19 11:34:00,,0825.7,5.01,0.00,30.7,29.2,00.0,39.5,32.4,16.4,0000.0,0004.15,0010.40,0003.69
2022-09-19 11:35:00,,0825.7,5.00,0.00,30.7,29.2,00.0,39.5,32.4,16.1,0000.0,0004.21,0010.81,0003.72
2022-09-19 11:36:00,,0825.7,5.01,0.00,30.7,29.2,00.0,39.5,32.4,16.3,0000.0,0004.29,0011.38,0003.76
2022-09-19 11:37:00,,0825.7,4.99,0.00,30.7,29.2,00.0,39.5,32.4,16.2,0000.0,0004.35,0011.44,0003.80
2022-09-19 11:38:00,,0825.9,4.99,0.00,30.7,29.2,00.0,39.5,32.5,15.9,0000.0,0004.39,0011.65,0003.81
2022-09-19 11:39:00,,0826.0,5.01,0.00,30.7,29.3,00.0,39.5,32.5,16.1,0000.0,0004.42,0012.03,0003.84
2022-09-19 11:40:00,,0826.1,4.99,0.00,30.8,29.3,00.0,39.5,32.5,16.2,0000.0,0004.43,0012.15,0003.85
2022-09-19 11:41:00,,0826.0,5.01,0.00,30.8,29.3,00.0,39.5,32.5,16.3,0000.0,0004.45,0011.56,0003.86
2022-09-19 11:42:00,,0825.8,4.99,0.00,30.8,29.3,00.0,39.5,32.5,15.9,0000.0,0004.43,0011.86,0003.84
2022-09-19 11:43:00,,0825.8,5.01,0.00,30.8,29.3,00.0,39.5,32.5,15.5,0000.0,0004.39,0013.13,0003.81
2022-09-19 11:44:00,,0826.0,4.98,0.00,30.8,29.3,00.0,39.5,32.5,15.8,0000.0,0004.34,0012.81,0003.77
2022-09-19 11:45:00,,0825.7,5.01,0.00,30.8,29.3,00.0,39.5,32.5,16.1,0000.0,0004.35,0012.46,0003.77
2022-09-19 11:46:00,,0826.0,4.98,0.00,30.8,29.3,00.0,39.5,32.5,16.1,0000.0,0004.33,0012.22,0003.79
2022-09-19 11:47:00,,0826.1,5.00,0.00,30.8,29.3,00.0,39.5,32.5,16.1,0000.0,0004.27,0010.70,0003.77
2022-09-19 11:48:00,,0826.0,5.00,0.00,30.8,29.3,00.0,39.5,32.5,16.1,0000.0,0004.25,0011.15,0003.78
2022-09-19 11:49:00,,0825.8,4.99,0.00,30.8,29.3,00.0,39.5,32.5,16.1,0000.0,0004.24,0011.13,0003.79
2022-09-19 11:50:00,,0825.8,5.01,0.00,30.8,29.3,00.0,39.5,32.5,16.2,0000.0,0004.25,0010.89,0003.81
2022-09-19 11:51:00,,0825.8,5.00,0.00,30.8,29.3,00.0,39.6,32.5,16.3,0000.0,0004.28,0010.81,0003.83
2022-09-19 11:52:00,,0825.9,5.01,0.00,30.8,29.3,00.0,39.6,32.5,16.3,0000.0,0004.27,0010.82,0003.84
2022-09-19 11:53:00,,0825.9,4.99,0.00,30.8,29.3,00.0,39.6,32.5,16.3,0000.0,0004.31,0010.69,0003.86
2022-09-19 11:54:00,,0825.9,5.00,0.00,30.8,29.3,00.0,39.6,32.5,16.2,0000.0,0004.39,0009.91,0003.88
2022-09-19 11:55:00,,0825.9,5.01,0.00,30.8,29.3,00.0,39.6,32.5,16.2,0000.0,0004.43,0009.62,0003.90
2022-09-19 11:56:00,,0825.9,4.99,0.00,30.8,29.3,00.0,39.6,32.5,16.1,0000.0,0004.45,0009.65,0003.90
2022-09-19 11:57:00,,0826.0,5.01,0.00,30.8,29.3,00.0,39.6,32.5,16.1,0000.0,0004.47,0009.77,0003.91
2022-09-19 11:58:00,,0826.0,5.00,0.00,30.8,29.3,00.0,39.6,32.5,16.3,0000.0,0004.50,0010.32,0003.93
2022-09-19 11:59:00,,0825.9,4.99,0.00,30.8,29.3,00.0,39.6,32.6,16.4,0000.0,0004.51,0009.90,0003.94
